SV2RIM-2 Weather Reports


Display with metric or nautical units.
time (UTC)temp
F
wind
direction
speed
MPH
gust
MPH
rain 1hr
in
rain 24hr
in
rain mn
in
humidity
%
barometer
mb
20221206102017 54 307 0.0 1.0 0.00 0.03 0.01 91 1020.9
20221206101017 54 232 0.0 1.0 0.00 0.03 0.01 90 1021.0
20221206100017 54 290 0.0 1.0 0.00 0.03 0.01 91 1021.2
20221206095037 54 268 0.0 1.0 0.00 0.03 0.01 90 1021.4
20221206094017 54 220 0.0 1.0 0.00 0.03 0.01 90 1021.5
20221206093017 53 257 0.0 1.0 0.00 0.03 0.01 91 1021.7
20221206092017 54 260 0.0 2.0 0.00 0.03 0.01 92 1021.8
20221206091021 53 272 0.0 0.0 0.00 0.03 0.01 91 1021.9
20221206090016 54 207 0.0 1.0 0.00 0.03 0.01 89 1022.1
20221206085017 54 214 0.0 1.0 0.00 0.03 0.01 87 1022.2
20221206084018 54 225 0.0 0.0 0.00 0.03 0.01 87 1022.3
20221206083017 51 225 0.0 1.0 0.00 0.03 0.01 91 1022.3
20221206082018 51 217 0.0 1.0 0.00 0.03 0.01 91 1022.3
20221206081017 50 272 0.0 1.0 0.00 0.03 0.01 91 1022.3
20221206080017 50 223 0.0 1.0 0.00 0.03 0.01 91 1022.3
20221206075037 49 230 0.0 1.0 0.00 0.03 0.01 90 1022.3
20221206074017 48 224 0.0 1.0 0.00 0.03 0.01 91 1022.3
20221206073017 48 213 1.0 1.0 0.00 0.03 0.01 92 1022.3
20221206072017 48 190 0.0 1.0 0.00 0.03 0.01 92 1022.3
20221206071018 48 195 0.0 1.0 0.00 0.03 0.01 92 1022.3
20221206070017 48 217 0.0 1.0 0.00 0.03 0.01 91 1022.3
20221206065037 48 202 0.0 1.0 0.00 0.03 0.01 91 1022.2
20221206064037 48 213 0.0 1.0 0.00 0.03 0.01 91 1022.2
20221206063017 47 216 0.0 0.0 0.00 0.03 0.01 92 1022.2
20221206062017 47 236 0.0 1.0 0.00 0.03 0.01 92 1022.2
20221206061017 47 250 0.0 1.0 0.01 0.03 0.01 92 1022.2
20221206060037 47 238 0.0 1.0 0.01 0.03 0.01 93 1022.1
20221206055017 47 225 0.0 1.0 0.01 0.03 0.01 93 1022.1
20221206054018 46 225 0.0 1.0 0.01 0.03 0.01 93 1022.2
20221206053017 47 225 0.0 0.0 0.01 0.03 0.01 93 1022.1
20221206052057 46 225 0.0 1.0 0.01 0.03 0.01 94 1022.1
20221206051017 47 210 0.0 1.0 0.00 0.02 0.00 93 1022.1
20221206050017 47 226 0.0 1.0 0.00 0.03 0.00 93 1022.0
20221206045018 47 227 0.0 0.0 0.00 0.04 0.00 92 1022.0
20221206044017 47 213 0.0 1.0 0.00 0.04 0.00 92 1022.0
20221206043037 47 214 0.0 1.0 0.00 0.07 0.00 93 1021.9
20221206042017 47 214 0.0 1.0 0.00 0.07 0.00 93 1021.9
20221206041017 47 284 0.0 1.0 0.00 0.07 0.00 93 1021.9
20221206040017 47 225 0.0 0.0 0.00 0.09 0.00 93 1021.8
20221206035021 47 224 0.0 1.0 0.00 0.09 0.00 93 1021.9
20221206034017 47 0.0 0.0 0.00 0.09 0.00 93 1022.0
20221206033057 47 331 0.0 2.0 0.00 0.11 0.00 93 1022.1
20221206032017 47 339 1.0 2.0 0.00 0.11 0.00 93 1022.2
20221206031017 47 276 0.0 2.0 0.00 0.11 0.00 93 1022.2
20221206030017 47 315 0.0 0.0 0.00 0.13 0.00 93 1022.2
20221206025017 47 0.0 0.0 0.00 0.13 0.00 93 1022.2
20221206024017 47 225 0.0 1.0 0.00 0.15 0.00 93 1022.3
20221206023018 47 225 0.0 1.0 0.00 0.15 0.00 92 1022.3
20221206022017 47 0.0 0.0 0.00 0.18 0.00 93 1022.4
20221206021017 47 244 0.0 1.0 0.00 0.18 0.00 93 1022.5
20221206020017 47 225 0.0 1.0 0.00 0.18 0.00 93 1022.5
20221206015017 47 269 0.0 1.0 0.00 0.20 0.00 93 1022.5
20221206014058 47 225 0.0 1.0 0.00 0.20 0.00 93 1022.5
20221206013037 47 269 0.0 1.0 0.00 0.20 0.00 93 1022.6
20221206012017 47 222 0.0 1.0 0.00 0.20 0.00 92 1022.7
20221206011037 47 236 0.0 1.0 0.00 0.22 0.00 92 1022.8
20221206010017 47 219 0.0 1.0 0.00 0.22 0.00 93 1022.8
20221206005018 47 265 0.0 1.0 0.00 0.22 0.00 93 1022.8
20221206004018 47 225 0.0 1.0 0.00 0.24 0.00 93 1023.0
20221206003037 47 225 0.0 1.0 0.00 0.24 0.00 92 1023.1
20221206002017 47 225 0.0 0.0 0.00 0.24 0.00 92 1023.1
20221206001017 47 225 0.0 1.0 0.00 0.24 0.00 93 1023.0
20221206000037 47 0.0 0.0 0.00 0.26 0.00 93 1023.0
20221205235017 47 217 0.0 1.0 0.00 0.26 0.00 92 1023.1
20221205234017 48 181 0.0 0.0 0.00 0.29 0.00 92 1023.2
20221205233017 47 222 0.0 1.0 0.00 0.29 0.00 92 1023.2
20221205232017 48 246 0.0 1.0 0.00 0.29 0.00 92 1023.4
20221205231017 48 222 0.0 0.0 0.00 0.30 0.00 92 1023.5
20221205230018 47 225 0.0 0.0 0.00 0.30 0.00 93 1023.6
20221205225017 47 225 0.0 0.0 0.00 0.30 0.00 93 1023.7
20221205224017 48 347 0.0 1.0 0.00 0.32 0.00 92 1023.8
20221205223037 48 313 0.0 0.0 0.00 0.32 0.00 92 1023.8
20221205222017 48 338 0.0 1.0 0.00 0.32 0.00 91 1023.8
20221205221017 48 225 0.0 1.0 0.00 0.32 0.00 92 1023.9
20221205220017 47 0.0 0.0 0.00 0.32 0.00 93 1023.9
20221205215037 47 225 0.0 1.0 0.00 0.34 0.32 93 1024.0
20221205214017 48 251 0.0 1.0 0.00 0.34 0.32 93 1024.0
20221205213017 48 211 0.0 1.0 0.00 0.34 0.32 92 1024.1
20221205212017 48 225 0.0 0.0 0.00 0.36 0.32 92 1024.2
20221205211017 48 312 0.0 1.0 0.00 0.36 0.32 92 1024.3
20221205210017 48 338 1.0 2.0 0.00 0.36 0.32 92 1024.3
20221205205017 48 0.0 0.0 0.00 0.36 0.32 92 1024.2
20221205204017 48 354 0.0 2.0 0.00 0.36 0.32 92 1024.2
20221205203018 48 354 1.0 2.0 0.00 0.37 0.32 92 1024.2
20221205202017 48 348 1.0 3.0 0.00 0.37 0.32 92 1024.3
20221205201017 48 315 0.0 1.0 0.00 0.37 0.32 93 1024.3
20221205200037 48 230 1.0 1.0 0.00 0.37 0.32 93 1024.4
20221205195017 48 226 0.0 2.0 0.00 0.37 0.32 93 1024.4
20221205194037 48 0.0 0.0 0.00 0.37 0.32 93 1024.4
20221205193017 48 224 0.0 1.0 0.00 0.37 0.32 93 1024.4
20221205192018 48 293 0.0 0.0 0.00 0.37 0.32 93 1024.4
20221205191017 48 213 0.0 0.0 0.00 0.37 0.32 93 1024.4
20221205190017 48 320 0.0 0.0 0.00 0.37 0.32 92 1024.3
20221205185057 48 212 0.0 1.0 0.00 0.37 0.32 92 1024.4
20221205184017 48 0.0 0.0 0.00 0.37 0.32 93 1024.4
20221205183017 48 225 0.0 0.0 0.00 0.37 0.32 93 1024.4
20221205182017 48 0.0 0.0 0.00 0.37 0.32 93 1024.5
20221205181016 48 247 0.0 1.0 0.00 0.37 0.32 93 1024.6
20221205180017 48 0.0 0.0 0.00 0.37 0.32 92 1024.5
20221205175037 48 253 0.0 0.0 0.00 0.37 0.32 93 1024.5
20221205174017 48 286 0.0 0.0 0.00 0.37 0.32 93 1024.4
20221205173037 48 331 0.0 1.0 0.00 0.37 0.32 93 1024.4
20221205172018 48 354 0.0 1.0 0.00 0.37 0.32 93 1024.5
20221205171017 48 232 0.0 0.0 0.00 0.37 0.32 93 1024.4
20221205170017 48 225 0.0 0.0 0.00 0.37 0.32 93 1024.4
20221205165017 48 235 0.0 0.0 0.00 0.37 0.32 93 1024.4
20221205164017 48 320 0.0 1.0 0.00 0.37 0.32 94 1024.4
20221205163017 48 334 0.0 1.0 0.00 0.37 0.32 94 1024.4
20221205162017 48 332 0.0 1.0 0.00 0.37 0.32 94 1024.4
20221205161017 48 286 0.0 0.0 0.00 0.37 0.32 94 1024.4
20221205160017 48 332 0.0 0.0 0.00 0.37 0.32 94 1024.4
20221205155017 48 0.0 0.0 0.00 0.37 0.32 94 1024.3
20221205154017 48 270 0.0 1.0 0.00 0.37 0.32 94 1024.3
20221205153018 48 310 0.0 1.0 0.00 0.37 0.32 94 1024.3
20221205152017 48 249 0.0 0.0 0.00 0.37 0.32 94 1024.4
20221205151018 48 266 0.0 1.0 0.00 0.37 0.32 94 1024.4
20221205150158 48 251 0.0 1.0 0.00 0.37 0.32 94 1024.4
20221205145017 48 223 0.0 1.0 0.00 0.37 0.32 94 1024.4
20221205144017 48 225 0.0 0.0 0.00 0.37 0.32 94 1024.4
20221205143017 48 222 0.0 1.0 0.00 0.37 0.32 94 1024.4
20221205142017 48 212 0.0 1.0 0.00 0.37 0.32 93 1024.4
20221205141017 48 219 0.0 1.0 0.00 0.37 0.32 94 1024.4
20221205140037 48 225 0.0 0.0 0.00 0.37 0.32 94 1024.4
20221205135017 48 4 0.0 1.0 0.00 0.37 0.32 95 1024.4
20221205134018 48 222 0.0 1.0 0.00 0.37 0.32 94 1024.5
20221205133017 49 243 0.0 0.0 0.00 0.37 0.32 94 1024.4
20221205132037 48 317 0.0 0.0 0.00 0.37 0.32 95 1024.4
20221205131017 48 0.0 0.0 0.00 0.37 0.32 95 1024.4
20221205130017 48 297 0.0 1.0 0.00 0.37 0.32 95 1024.4
20221205125017 49 298 0.0 1.0 0.00 0.37 0.32 94 1024.4
20221205124017 49 280 0.0 1.0 0.00 0.37 0.32 94 1024.4
20221205123017 49 314 0.0 1.0 0.00 0.37 0.32 93 1024.5
20221205122018 50 309 0.0 1.0 0.00 0.37 0.32 93 1024.6
20221205121017 49 254 0.0 1.0 0.00 0.37 0.32 94 1024.6
20221205120037 49 225 0.0 1.0 0.00 0.37 0.32 94 1024.8
20221205115017 49 206 0.0 1.0 0.02 0.37 0.32 93 1024.8
20221205114017 49 218 0.0 1.0 0.02 0.37 0.32 94 1025.0
20221205113017 49 225 0.0 1.0 0.02 0.37 0.32 94 1025.0
20221205112038 48 225 0.0 0.0 0.02 0.37 0.32 95 1025.2
20221205111018 48 218 0.0 1.0 0.02 0.37 0.32 95 1025.3
20221205110017 49 301 0.0 1.0 0.02 0.37 0.32 95 1025.5
20221205105017 49 329 0.0 1.0 0.00 0.35 0.30 95 1025.5
20221205104017 49 225 0.0 0.0 0.00 0.35 0.30 95 1025.6
20221205103017 48 225 0.0 1.0 0.00 0.35 0.30 95 1025.7